Location: Trébons-de-Luchon
(42.8036°N, 0.5656°E)
Time: 21:12:44
(UTC+01:00)

ISS - Visible Passes

Search period start: 04 December 2023 00:00
Search period end: 14 December 2023 00:00
Orbit: 415 x 417 km, 51.6° (Epoch: 04 December)

Date Brightness Start Highest point End Pass type
(mag) Time Alt. Az. Time Alt. Az. Time Alt. Az.
04 Dec -2.6 19:04:34 10° WNW 19:07:45 42° SW 19:09:49 19° SSE visible
05 Dec -3.6 18:15:56 10° WNW 18:19:17 74° SW 18:22:37 10° SE visible
06 Dec -0.7 19:05:00 10° W 19:07:08 16° SW 19:09:16 10° S visible
07 Dec -1.4 18:15:54 10° WNW 18:18:46 27° SW 18:21:38 10° SSE visible
09 Dec 0.3 18:17:55 10° SW 18:18:02 10° SW 18:18:09 10° SW visible
